Total_Precipitation_Accumulation
0.20 0.34 0.50 0.67 0.74 0.78 0.78 0.76 0.72 0.78 0.88 1.05 1.18 1.20 1.27 1.27 1.26 1.33 1.44 1.63 1.77 1.84 1.86 1.88 1.79 1.65 1.53 1.43 1.31 1.14 1.00 0.89 0.80 0.74 0.61 0.47 0.39 0.37 0.35 0.34 0.36 0.37 0.36
0.31 0.51 0.69 0.99 1.08 1.02 1.02 1.06 1.09 1.22 1.39 1.64 1.86 2.03 2.18 2.27 2.28 2.29 2.40 2.52 2.64 2.72 2.72 2.64 2.52 2.35 2.05 1.65 1.34 1.17 1.06 0.95 0.88 0.84 0.77 0.56 0.39 0.29 0.24 0.26 0.28 0.31 0.33
0.67 0.82 0.95 1.09 1.26 1.31 1.35 1.42 1.56 1.85 2.20 2.50 2.80 3.03 3.27 3.37 3.27 3.10 3.10 3.19 3.23 3.26 3.30 3.21 2.92 2.48 1.99 1.58 1.35 1.27 1.16 1.02 0.92 0.84 0.81 0.71 0.57 0.38 0.25 0.21 0.20 0.21 0.21
0.74 0.89 1.04 1.24 1.34 1.44 1.56 1.65 1.86 2.25 2.63 2.99 3.41 3.74 3.91 4.06 4.16 4.02 3.84 3.63 3.42 3.32 3.18 2.96 2.51 2.07 1.71 1.47 1.37 1.23 1.04 0.93 0.79 0.69 0.62 0.57 0.51 0.44 0.33 0.23 0.17 0.14 0.13
0.52 0.69 0.85 1.12 1.34 1.44 1.46 1.54 1.87 2.36 2.99 3.60 4.01 4.27 4.46 4.54 4.47 4.20 3.89 3.54 3.17 2.76 2.45 2.15 1.84 1.65 1.44 1.21 1.03 0.89 0.74 0.63 0.53 0.46 0.42 0.38 0.33 0.30 0.28 0.24 0.18 0.17 0.15
0.34 0.42 0.56 0.81 1.08 1.18 1.37 1.58 1.90 2.52 3.19 3.67 4.05 4.31 4.47 4.37 4.16 3.81 3.33 3.01 2.67 2.24 1.87 1.64 1.41 1.21 1.01 0.81 0.63 0.51 0.44 0.40 0.37 0.34 0.31 0.27 0.26 0.24 0.26 0.27 0.22 0.19 0.18
0.30 0.36 0.45 0.62 0.87 1.01 1.31 1.65 2.03 2.53 2.94 3.37 3.69 3.79 3.88 3.85 3.73 3.51 3.17 2.84 2.40 1.96 1.58 1.31 1.11 0.88 0.67 0.52 0.41 0.33 0.27 0.23 0.22 0.21 0.20 0.19 0.20 0.20 0.20 0.21 0.19 0.18 0.17
0.35 0.43 0.57 0.71 0.85 0.94 1.11 1.45 1.80 2.22 2.44 2.62 2.85 2.95 3.01 3.04 2.93 2.74 2.48 2.17 1.85 1.57 1.25 0.95 0.70 0.51 0.38 0.31 0.26 0.22 0.20 0.17 0.15 0.14 0.14 0.13 0.12 0.12 0.12 0.14 0.16 0.19 0.19
0.34 0.45 0.57 0.68 0.76 0.81 0.95 1.13 1.33 1.59 1.85 2.04 2.12 2.13 2.13 2.05 1.98 1.82 1.61 1.43 1.26 1.04 0.78 0.57 0.41 0.32 0.26 0.20 0.17 0.15 0.13 0.11 0.11 0.11 0.11 0.11 0.11 0.10 0.10 0.11 0.14 0.19 0.23
0.37 0.45 0.50 0.52 0.56 0.60 0.72 0.85 0.99 1.12 1.28 1.39 1.41 1.37 1.31 1.27 1.18 1.09 1.00 0.83 0.67 0.54 0.44 0.36 0.29 0.24 0.19 0.16 0.14 0.13 0.11 0.10 0.10 0.10 0.11 0.13 0.13 0.14 0.15 0.16 0.16 0.18 0.21
0.42 0.43 0.44 0.44 0.41 0.42 0.51 0.59 0.67 0.81 0.90 0.92 0.89 0.81 0.78 0.72 0.68 0.62 0.58 0.50 0.42 0.37 0.33 0.29 0.26 0.23 0.20 0.17 0.15 0.15 0.15 0.15 0.16 0.17 0.17 0.18 0.18 0.18 0.16 0.16 0.15 0.14 0.17
0.42 0.39 0.38 0.35 0.32 0.33 0.37 0.41 0.46 0.52 0.55 0.52 0.48 0.46 0.46 0.45 0.44 0.42 0.39 0.36 0.35 0.32 0.29 0.27 0.24 0.22 0.21 0.21 0.20 0.20 0.19 0.19 0.19 0.19 0.18 0.18 0.17 0.18 0.17 0.17 0.16 0.16 0.18
0.50 0.44 0.41 0.36 0.34 0.33 0.33 0.33 0.32 0.32 0.33 0.33 0.33 0.33 0.34 0.35 0.36 0.37 0.37 0.35 0.34 0.32 0.29 0.27 0.27 0.26 0.25 0.23 0.22 0.21 0.20 0.18 0.16 0.15 0.14 0.13 0.12 0.12 0.11 0.10 0.09 0.09 0.09
0.54 0.54 0.56 0.52 0.43 0.35 0.32 0.30 0.30 0.27 0.26 0.25 0.25 0.25 0.26 0.28 0.30 0.30 0.30 0.30 0.30 0.32 0.32 0.31 0.29 0.26 0.23 0.19 0.16 0.13 0.11 0.09 0.08 0.07 0.06 0.05 0.05 0.07 0.08 0.08 0.08 0.09 0.11
0.66 0.68 0.67 0.59 0.51 0.46 0.41 0.37 0.35 0.33 0.30 0.30 0.30 0.29 0.28 0.28 0.29 0.30 0.32 0.31 0.30 0.27 0.24 0.20 0.16 0.13 0.10 0.07 0.05 0.04 0.03 0.03 0.02 0.02 0.02 0.02 0.03 0.05 0.06 0.06 0.08 0.13 0.17
0.89 0.86 0.77 0.69 0.65 0.60 0.55 0.50 0.46 0.43 0.42 0.42 0.43 0.43 0.41 0.40 0.38 0.34 0.30 0.26 0.21 0.16 0.12 0.09 0.07 0.05 0.03 0.02 0.01 0.01 0.01 0.01 0.02 0.02 0.02 0.02 0.02 0.02 0.02 0.05 0.10 0.16 0.19
1.03 1.02 0.98 0.88 0.79 0.73 0.68 0.63 0.59 0.55 0.53 0.52 0.51 0.51 0.46 0.41 0.32 0.23 0.16 0.13 0.10 0.08 0.06 0.05 0.03 0.03 0.01 0.00 0.00 0.00 0.00 0.02 0.03 0.04 0.04 0.03 0.02 0.03 0.05 0.06 0.07 0.09 0.09
1.02 1.02 1.00 0.97 0.90 0.80 0.72 0.68 0.65 0.60 0.57 0.54 0.50 0.44 0.36 0.28 0.19 0.13 0.10 0.08 0.07 0.06 0.05 0.03 0.03 0.04 0.02 0.00 0.00 0.00 0.01 0.03 0.04 0.04 0.04 0.05 0.06 0.06 0.06 0.04 0.05 0.09 0.13
1.12 1.08 1.00 0.90 0.84 0.76 0.69 0.67 0.67 0.62 0.55 0.47 0.36 0.26 0.18 0.13 0.09 0.07 0.07 0.07 0.06 0.05 0.04 0.03 0.05 0.07 0.05 0.01 0.00 0.00 0.01 0.03 0.03 0.04 0.03 0.04 0.07 0.07 0.07 0.06 0.10 0.16 0.20
0.94 0.86 0.76 0.65 0.60 0.59 0.56 0.51 0.49 0.43 0.34 0.24 0.15 0.11 0.08 0.06 0.05 0.05 0.05 0.05 0.05 0.05 0.04 0.04 0.05 0.07 0.08 0.02 0.00 0.00 0.01 0.02 0.03 0.05 0.08 0.06 0.06 0.05 0.05 0.05 0.12 0.21 0.23
0.64 0.58 0.54 0.50 0.47 0.41 0.35 0.30 0.25 0.21 0.15 0.10 0.07 0.06 0.04 0.03 0.03 0.03 0.04 0.04 0.05 0.06 0.06 0.07 0.07 0.08 0.04 0.01 0.00 0.00 0.00 0.01 0.02 0.08 0.15 0.16 0.08 0.05 0.05 0.07 0.12 0.19 0.17
0.38 0.35 0.33 0.30 0.27 0.23 0.19 0.17 0.14 0.09 0.06 0.05 0.05 0.04 0.03 0.01 0.02 0.04 0.05 0.05 0.06 0.09 0.09 0.10 0.10 0.09 0.07 0.03 0.01 0.00 0.00 0.00 0.04 0.13 0.18 0.17 0.09 0.07 0.10 0.11 0.15 0.17 0.23
0.24 0.24 0.20 0.17 0.17 0.16 0.15 0.13 0.10 0.07 0.06 0.07 0.06 0.04 0.03 0.03 0.03 0.04 0.06 0.07 0.08 0.08 0.06 0.08 0.09 0.09 0.09 0.06 0.00 0.00 0.00 0.01 0.04 0.11 0.11 0.12 0.13 0.15 0.25 0.24 0.21 0.27 0.41
0.18 0.17 0.15 0.16 0.16 0.15 0.15 0.14 0.11 0.10 0.12 0.13 0.09 0.06 0.06 0.06 0.06 0.06 0.05 0.06 0.08 0.06 0.06 0.08 0.08 0.09 0.09 0.05 0.02 0.02 0.04 0.05 0.08 0.10 0.14 0.22 0.28 0.31 0.38 0.42 0.47 0.49 0.49
0.15 0.14 0.16 0.16 0.12 0.11 0.11 0.11 0.11 0.13 0.16 0.15 0.10 0.06 0.05 0.06 0.08 0.09 0.06 0.04 0.05 0.01 0.02 0.04 0.04 0.05 0.05 0.03 0.02 0.02 0.02 0.03 0.05 0.07 0.18 0.33 0.40 0.46 0.49 0.52 0.56 0.58 0.52
0.11 0.12 0.12 0.09 0.08 0.08 0.08 0.08 0.09 0.10 0.13 0.14 0.09 0.05 0.04 0.05 0.06 0.09 0.10 0.04 0.01 0.00 0.00 0.00 0.01 0.02 0.02 0.02 0.02 0.02 0.02 0.04 0.07 0.13 0.27 0.34 0.38 0.42 0.43 0.43 0.46 0.51 0.50